Cloud_Cover
99 100 100 64 5 5 5 0 0 0 0 0 0 0 0 0 0 0 0 0 0 0 0 0 0 0 0 0 0 0 0 0 0 0 0 0 33 99 100 100 100 100 100 96
44 66 82 13 5 5 5 5 3 0 0 0 0 0 0 0 5 5 2 5 0 0 0 0 0 0 0 0 0 0 0 0 0 0 0 0 68 100 99 95 100 100 100 100
56 64 10 24 5 5 5 5 5 2 0 0 0 0 0 2 6 12 66 31 2 0 0 0 0 0 0 0 0 0 0 0 0 0 0 3 48 69 100 99 100 100 100 100
28 58 26 16 5 5 38 8 5 2 0 0 0 1 5 5 5 83 61 5 5 0 0 0 0 0 0 0 0 0 0 0 0 0 0 0 0 27 49 94 100 100 100 100
79 53 5 5 22 4 5 5 5 5 3 0 0 0 99 98 98 100 9 5 4 0 0 0 0 0 0 0 0 0 0 0 0 0 0 0 0 0 19 97 100 100 100 100
100 100 100 100 100 27 5 5 9 12 5 3 4 0 98 100 100 100 98 88 8 0 1 5 0 0 0 0 0 0 0 0 0 0 0 0 0 17 6 94 95 100 100 100
100 100 100 100 100 100 100 76 20 9 5 0 0 0 96 100 100 100 100 100 42 24 5 5 1 0 0 0 0 0 0 0 0 0 0 0 0 29 0 51 81 91 100 100
100 100 100 100 100 100 100 100 89 5 12 5 0 0 21 96 100 100 100 100 100 80 25 5 1 0 0 0 0 0 0 0 0 0 0 0 16 50 11 46 100 100 100 100
100 100 100 100 100 100 100 100 100 53 5 4 0 0 5 100 100 88 100 100 98 100 28 5 3 0 0 0 0 2 5 5 0 0 1 0 16 12 0 20 100 100 100 98
100 63 100 100 96 100 100 100 100 96 14 7 3 4 1 100 100 100 100 100 93 6 5 0 2 1 0 0 0 0 0 0 1 3 0 0 0 0 4 33 100 79 46 26
100 99 12 21 15 96 100 65 100 100 89 14 1 0 5 100 100 100 99 100 65 19 5 0 1 0 0 0 0 0 0 0 1 0 12 28 0 0 3 7 30 90 100 71
100 97 30 12 54 88 100 87 99 34 4 45 66 0 0 39 91 18 95 99 100 64 5 5 4 2 3 0 0 0 0 0 0 0 6 23 27 50 88 100 100 100 100 100
100 100 80 51 6 5 6 12 97 100 100 27 5 0 61 2 8 99 65 72 23 82 100 72 6 52 30 5 0 0 1 0 17 0 2 4 10 63 38 45 97 100 66 100
100 100 35 19 24 71 5 5 57 100 100 1 1 0 11 5 94 100 100 97 5 5 22 94 6 5 0 5 6 5 5 3 4 5 5 25 42 52 98 100 100 100 100 100
100 100 90 12 15 78 41 35 42 94 5 19 0 1 5 100 100 100 100 100 2 5 4 5 8 5 5 8 83 19 5 5 5 4 4 5 45 100 100 100 100 100 100 100
100 97 95 98 74 100 100 42 5 4 5 80 4 5 95 100 79 40 41 5 5 5 2 3 5 15 41 5 14 5 72 73 7 35 100 100 100 100 100 100 100 100 100 100
100 100 100 95 41 100 100 32 78 75 6 12 65 3 96 98 100 100 5 5 5 5 5 5 5 6 53 39 16 27 5 11 6 5 49 100 100 100 100 100 100 100 100 100
100 100 100 100 100 100 94 5 9 12 5 50 74 66 100 93 100 16 7 30 66 86 40 25 51 62 89 99 100 95 73 97 100 100 100 100 100 100 100 100 100 100 100 100
44 100 100 100 100 99 91 72 5 93 7 15 26 8 95 100 100 100 100 96 34 37 97 96 40 51 91 87 98 100 100 100 100 100 100 100 88 100 100 100 100 100 100 100
96 99 100 100 100 100 6 33 25 100 75 70 97 80 53 98 21 63 100 100 100 100 100 100 100 100 100 100 100 100 100 100 100 100 100 100 100 100 100 100 100 100 100 100
100 100 100 100 100 99 21 100 100 100 100 96 66 100 100 95 74 6 100 100 100 100 100 100 100 100 100 100 100 100 100 100 100 100 100 100 100 100 100 100 100 100 100 100
38 100 100 100 100 100 39 84 100 100 100 100 100 100 100 100 100 96 33 44 67 100 93 63 15 100 100 100 100 100 100 100 100 100 100 100 100 100 100 100 100 100 100 100
51 10 5 100 82 94 96 100 100 100 100 100 100 100 100 100 100 100 62 7 7 66 54 91 81 100 79 88 100 100 100 100 100 100 100 100 100 100 100 100 100 100 100 100
0 0 3 64 10 7 100 99 100 100 100 100 100 100 100 100 100 100 100 92 100 99 65 97 32 100 100 100 100 100 100 100 100 100 100 100 100 100 100 100 100 100 100 100
2 4 51 18 4 82 81 100 73 96 90 100 96 98 100 100 100 100 100 100 100 100 100 96 100 100 100 97 89 100 100 100 100 100 100 100 99 97 89 100 100 100 100 100
0 4 38 2 0 57 93 100 100 84 100 100 83 100 98 100 100 100 100 100 100 100 100 100 100 100 99 98 100 100 95 100 100 100 100 100 100 100 100 100 100 100 100 100